Terug naar catalogus

GLOBALSTAR M102

ActiefCommunicatieLEO
NORAD 100326·PAYLOAD·🇺🇸 United States

Gelanceerd Aug 16, 2026 vanaf Cape Canaveral Space Force Station

Loading…

Volgende Passages (komende 24 uur)

TLE

VersSource: Space-Track

Epoch: Sep 14, 2026, 14:36 UTC

1 A0326U 26185B   26257.60856851  .00000217  00000-0  78245-4 0  9994
2 A0326  51.9958 110.9123 0009675 329.0408  30.9977 14.63767242  4326

Volg GLOBALSTAR M102 in realtime met AllMySat

Download on the App Store